Time,TemperatureF,DewpointF,PressureIn,WindDirection,WindDirectionDegrees,WindSpeedMPH,WindSpeedGustMPH,Humidity,HourlyPrecipIn,Conditions,Clouds,dailyrainin,SoftwareType,DateUTC
2013-02-03 00:03:00,55.0,41.0,30.16,North,357,5.0,7.0,58,0.48,,,-99.99,,2013-02-03 05:03:00,
2013-02-03 00:12:00,55.0,41.0,30.16,North,357,5.0,7.0,58,0.48,,,-99.99,,2013-02-03 05:12:00,
2013-02-03 00:22:00,55.0,41.0,30.15,NNW,345,5.0,6.0,58,0.48,,,-99.99,,2013-02-03 05:22:00,
2013-02-03 00:32:00,54.0,39.0,30.16,NNW,345,6.0,7.0,57,0.48,,,-99.99,,2013-02-03 05:32:00,
2013-02-03 00:42:00,54.0,39.0,30.16,NNW,345,6.0,7.0,57,0.48,,,-99.99,,2013-02-03 05:42:00,
2013-02-03 00:52:00,54.0,41.0,30.15,NNW,340,6.0,7.0,62,0.48,,,-99.99,,2013-02-03 05:52:00,
2013-02-03 01:02:00,54.0,43.0,30.15,NNW,336,6.0,8.0,67,0.48,,,-99.99,,2013-02-03 06:02:00,
2013-02-03 01:11:00,54.0,43.0,30.15,NNW,336,6.0,8.0,67,0.48,,,-99.99,,2013-02-03 06:11:00,
2013-02-03 01:21:00,53.0,43.0,30.15,NNW,335,6.0,8.0,69,0.48,,,-99.99,,2013-02-03 06:21:00,
2013-02-03 01:32:00,53.0,44.0,30.14,NNW,330,6.0,8.0,71,0.48,,,-99.99,,2013-02-03 06:32:00,
2013-02-03 01:42:00,53.0,44.0,30.14,NNW,330,6.0,8.0,71,0.48,,,-99.99,,2013-02-03 06:42:00,
2013-02-03 01:52:00,52.0,43.0,30.14,NW,322,5.0,7.0,71,0.48,,,-99.99,,2013-02-03 06:52:00,
2013-02-03 02:01:00,52.0,44.0,30.14,NNW,332,7.0,9.0,73,0.48,,,-99.99,,2013-02-03 07:01:00,
2013-02-03 02:11:00,52.0,44.0,30.14,NNW,332,7.0,9.0,73,0.48,,,-99.99,,2013-02-03 07:11:00,
2013-02-03 02:21:00,51.0,42.0,30.13,NNW,330,7.0,10.0,72,0.48,,,-99.99,,2013-02-03 07:21:00,
2013-02-03 02:31:00,51.0,42.0,30.12,NNW,342,7.0,9.0,72,0.48,,,-99.99,,2013-02-03 07:31:00,
2013-02-03 02:42:00,51.0,42.0,30.12,NNW,342,7.0,9.0,72,0.48,,,-99.99,,2013-02-03 07:42:00,
2013-02-03 02:52:00,51.0,43.0,30.12,NNW,335,7.0,9.0,73,0.48,,,-99.99,,2013-02-03 07:52:00,
2013-02-03 03:01:00,51.0,43.0,30.12,NW,322,6.0,8.0,73,0.48,,,-99.99,,2013-02-03 08:01:00,
2013-02-03 03:11:00,51.0,43.0,30.12,NW,322,6.0,8.0,73,0.48,,,-99.99,,2013-02-03 08:11:00,
2013-02-03 03:22:00,50.0,42.0,30.12,NW,323,5.0,6.0,74,0.48,,,-99.99,,2013-02-03 08:22:00,
2013-02-03 03:32:00,50.0,42.0,30.11,NW,311,3.0,4.0,75,0.48,,,-99.99,,2013-02-03 08:32:00,
2013-02-03 03:41:00,50.0,42.0,30.11,NW,311,3.0,4.0,75,0.48,,,-99.99,,2013-02-03 08:41:00,
2013-02-03 03:52:00,50.0,42.0,30.11,NNW,333,2.0,4.0,75,0.48,,,-99.99,,2013-02-03 08:52:00,
2013-02-03 04:03:00,50.0,43.0,30.11,NNW,329,1.0,3.0,76,0.48,,,-99.99,,2013-02-03 09:03:00,
2013-02-03 04:11:00,50.0,43.0,30.11,NNW,329,1.0,3.0,76,0.48,,,-99.99,,2013-02-03 09:11:00,
2013-02-03 04:21:00,50.0,43.0,30.11,NNW,335,5.0,6.0,77,0.48,,,-99.99,,2013-02-03 09:21:00,
2013-02-03 04:31:00,50.0,43.0,30.11,NW,318,3.0,5.0,77,0.48,,,-99.99,,2013-02-03 09:31:00,
2013-02-03 04:42:00,50.0,43.0,30.11,NW,318,3.0,5.0,77,0.48,,,-99.99,,2013-02-03 09:42:00,
2013-02-03 04:52:00,50.0,43.0,30.11,North,0,0.0,0.0,77,0.48,,,-99.99,,2013-02-03 09:52:00,
2013-02-03 05:01:00,49.0,42.0,30.12,NW,326,5.0,6.0,77,0.48,,,-99.99,,2013-02-03 10:01:00,
2013-02-03 05:11:00,49.0,42.0,30.12,NNW,330,7.0,9.0,77,0.48,,,-99.99,,2013-02-03 10:11:00,
2013-02-03 05:21:00,49.0,42.0,30.12,NNW,330,7.0,9.0,77,0.48,,,-99.99,,2013-02-03 10:21:00,
2013-02-03 05:31:00,48.0,40.0,30.13,NW,325,7.0,11.0,75,0.48,,,-99.99,,2013-02-03 10:31:00,
2013-02-03 05:42:00,48.0,40.0,30.13,NW,325,7.0,11.0,75,0.48,,,-99.99,,2013-02-03 10:42:00,
2013-02-03 05:53:00,47.0,40.0,30.13,NNW,330,7.0,11.0,76,0.48,,,-99.99,,2013-02-03 10:53:00,
2013-02-03 06:02:00,47.0,39.0,30.14,NW,309,7.0,11.0,74,0.48,,,-99.99,,2013-02-03 11:02:00,
2013-02-03 06:11:00,47.0,39.0,30.14,NW,309,7.0,11.0,74,0.48,,,-99.99,,2013-02-03 11:11:00,
2013-02-03 06:22:00,47.0,38.0,30.13,NNW,335,6.0,9.0,71,0.48,,,-99.99,,2013-02-03 11:22:00,
2013-02-03 06:32:00,47.0,39.0,30.14,NW,315,7.0,10.0,73,0.48,,,-99.99,,2013-02-03 11:32:00,
2013-02-03 06:42:00,47.0,39.0,30.14,NW,315,7.0,10.0,73,0.48,,,-99.99,,2013-02-03 11:42:00,
2013-02-03 06:52:00,46.0,37.0,30.16,NNW,340,7.0,11.0,72,0.48,,,-99.99,,2013-02-03 11:52:00,
2013-02-03 07:02:00,45.0,38.0,30.16,NNW,346,8.0,11.0,75,0.48,,,-99.99,,2013-02-03 12:02:00,
2013-02-03 07:12:00,45.0,38.0,30.16,NNW,346,8.0,11.0,75,0.48,,,-99.99,,2013-02-03 12:12:00,
2013-02-03 07:22:00,45.0,38.0,30.16,NNW,329,7.0,12.0,76,0.48,,,-99.99,,2013-02-03 12:22:00,
2013-02-03 07:32:00,45.0,38.0,30.17,NNW,346,8.0,12.0,76,0.48,,,-99.99,,2013-02-03 12:32:00,
2013-02-03 07:42:00,45.0,38.0,30.17,NNW,346,8.0,12.0,76,0.48,,,-99.99,,2013-02-03 12:42:00,
2013-02-03 07:53:00,45.0,38.0,30.17,NNW,338,7.0,10.0,77,0.48,,,-99.99,,2013-02-03 12:53:00,
2013-02-03 08:03:00,46.0,39.0,30.18,NNW,345,7.0,11.0,77,0.48,,,-99.99,,2013-02-03 13:03:00,
2013-02-03 08:11:00,46.0,39.0,30.18,North,357,6.0,9.0,77,0.48,,,-99.99,,2013-02-03 13:11:00,
2013-02-03 08:22:00,46.0,39.0,30.18,North,357,6.0,9.0,77,0.48,,,-99.99,,2013-02-03 13:22:00,
2013-02-03 08:32:00,47.0,40.0,30.19,North,359,5.0,7.0,76,0.48,,,-99.99,,2013-02-03 13:32:00,
2013-02-03 08:42:00,47.0,40.0,30.19,North,359,5.0,7.0,76,0.48,,,-99.99,,2013-02-03 13:42:00,
2013-02-03 08:52:00,47.0,39.0,30.19,NNW,346,5.0,8.0,74,0.48,,,-99.99,,2013-02-03 13:52:00,
2013-02-03 09:02:00,49.0,40.0,30.19,NNW,335,4.0,7.0,70,0.48,,,-99.99,,2013-02-03 14:02:00,
2013-02-03 09:11:00,49.0,40.0,30.19,NNW,335,4.0,7.0,70,0.48,,,-99.99,,2013-02-03 14:11:00,
2013-02-03 09:21:00,52.0,40.0,30.19,North,353,8.0,12.0,63,0.48,,,-99.99,,2013-02-03 14:21:00,
2013-02-03 09:32:00,53.0,41.0,30.19,North,349,5.0,8.0,63,0.48,,,-99.99,,2013-02-03 14:32:00,
2013-02-03 09:42:00,53.0,41.0,30.19,North,349,5.0,8.0,63,0.48,,,-99.99,,2013-02-03 14:42:00,
2013-02-03 09:52:00,54.0,40.0,30.19,North,349,4.0,7.0,59,0.48,,,-99.99,,2013-02-03 14:52:00,
2013-02-03 10:03:00,56.0,40.0,30.19,NW,305,0.0,3.0,55,0.48,,,-99.99,,2013-02-03 15:03:00,
2013-02-03 10:11:00,58.0,40.0,30.19,North,352,3.0,7.0,51,0.48,,,-99.99,,2013-02-03 15:11:00,
2013-02-03 10:22:00,58.0,40.0,30.19,North,352,3.0,7.0,51,0.48,,,-99.99,,2013-02-03 15:22:00,
2013-02-03 10:33:00,59.0,39.0,30.19,NW,326,7.0,14.0,47,0.48,,,-99.99,,2013-02-03 15:33:00,
2013-02-03 10:42:00,59.0,39.0,30.19,NW,326,7.0,14.0,47,0.48,,,-99.99,,2013-02-03 15:42:00,
2013-02-03 10:52:00,60.0,42.0,30.19,NW,323,9.0,13.0,51,0.48,,,-99.99,,2013-02-03 15:52:00,
2013-02-03 11:02:00,62.0,45.0,30.18,NNW,343,10.0,18.0,54,0.48,,,-99.99,,2013-02-03 16:02:00,
2013-02-03 11:11:00,62.0,45.0,30.18,NNW,343,10.0,18.0,54,0.48,,,-99.99,,2013-02-03 16:11:00,
2013-02-03 11:22:00,62.0,44.0,30.18,NW,304,8.0,15.0,52,0.48,,,-99.99,,2013-02-03 16:22:00,
2013-02-03 11:33:00,64.0,47.0,30.17,NNW,336,10.0,18.0,54,0.48,,,-99.99,,2013-02-03 16:33:00,
2013-02-03 11:42:00,64.0,47.0,30.17,NNW,336,10.0,18.0,54,0.48,,,-99.99,,2013-02-03 16:42:00,
2013-02-03 11:52:00,65.0,47.0,30.17,NNW,335,9.0,19.0,52,0.48,,,-99.99,,2013-02-03 16:52:00,
2013-02-03 12:03:00,65.0,46.0,30.16,NW,319,10.0,17.0,51,0.48,,,-99.99,,2013-02-03 17:03:00,
2013-02-03 12:11:00,65.0,46.0,30.16,NW,319,10.0,17.0,51,0.48,,,-99.99,,2013-02-03 17:11:00,
2013-02-03 12:22:00,66.0,46.0,30.15,NW,325,13.0,19.0,48,0.48,,,-99.99,,2013-02-03 17:22:00,
2013-02-03 12:32:00,67.0,47.0,30.15,NW,322,12.0,19.0,49,0.48,,,-99.99,,2013-02-03 17:32:00,
2013-02-03 12:42:00,67.0,47.0,30.15,NW,322,12.0,19.0,49,0.48,,,-99.99,,2013-02-03 17:42:00,
2013-02-03 12:52:00,68.0,48.0,30.14,NW,325,8.0,13.0,49,0.48,,,-99.99,,2013-02-03 17:52:00,
2013-02-03 13:03:00,68.0,48.0,30.14,NW,316,13.0,18.0,48,0.48,,,-99.99,,2013-02-03 18:03:00,
2013-02-03 13:12:00,68.0,48.0,30.14,NW,316,13.0,18.0,48,0.48,,,-99.99,,2013-02-03 18:12:00,
2013-02-03 13:23:00,68.0,48.0,30.13,NNW,329,12.0,18.0,48,0.48,,,-99.99,,2013-02-03 18:23:00,
2013-02-03 13:33:00,68.0,48.0,30.12,WNW,294,12.0,19.0,48,0.48,,,-99.99,,2013-02-03 18:33:00,
2013-02-03 13:42:00,68.0,48.0,30.12,WNW,294,12.0,19.0,48,0.48,,,-99.99,,2013-02-03 18:42:00,
2013-02-03 13:52:00,68.0,47.0,30.11,NW,315,12.0,17.0,47,0.48,,,-99.99,,2013-02-03 18:52:00,
2013-02-03 14:02:00,69.0,48.0,30.10,NW,312,11.0,17.0,47,0.48,,,-99.99,,2013-02-03 19:02:00,
2013-02-03 14:11:00,69.0,48.0,30.10,NW,312,11.0,17.0,47,0.48,,,-99.99,,2013-02-03 19:11:00,
2013-02-03 14:22:00,70.0,48.0,30.09,WNW,295,11.0,17.0,45,0.48,,,-99.99,,2013-02-03 19:22:00,
2013-02-03 14:32:00,70.0,48.0,30.09,NW,312,10.0,16.0,45,0.48,,,-99.99,,2013-02-03 19:32:00,
2013-02-03 14:42:00,70.0,48.0,30.09,NW,312,10.0,16.0,45,0.48,,,-99.99,,2013-02-03 19:42:00,
2013-02-03 14:52:00,69.0,47.0,30.09,NW,307,10.0,16.0,46,0.48,,,-99.99,,2013-02-03 19:52:00,
2013-02-03 15:01:00,69.0,47.0,30.08,WNW,301,10.0,16.0,46,0.48,,,-99.99,,2013-02-03 20:01:00,
2013-02-03 15:12:00,69.0,47.0,30.08,WNW,301,10.0,16.0,46,0.48,,,-99.99,,2013-02-03 20:12:00,
2013-02-03 15:22:00,68.0,47.0,30.08,NW,318,11.0,17.0,47,0.48,,,-99.99,,2013-02-03 20:22:00,
2013-02-03 15:33:00,68.0,46.0,30.08,NW,312,12.0,17.0,45,0.48,,,-99.99,,2013-02-03 20:33:00,
2013-02-03 15:42:00,68.0,46.0,30.08,NW,312,12.0,17.0,45,0.48,,,-99.99,,2013-02-03 20:42:00,
2013-02-03 15:52:00,70.0,46.0,30.07,NW,307,11.0,21.0,43,0.48,,,-99.99,,2013-02-03 20:52:00,
2013-02-03 16:03:00,70.0,44.0,30.07,WNW,302,13.0,20.0,39,0.48,,,-99.99,,2013-02-03 21:03:00,
2013-02-03 16:11:00,70.0,44.0,30.07,WNW,302,13.0,20.0,39,0.48,,,-99.99,,2013-02-03 21:11:00,
2013-02-03 16:21:00,70.0,44.0,30.07,WNW,293,12.0,19.0,39,0.48,,,-99.99,,2013-02-03 21:21:00,
2013-02-03 16:32:00,69.0,44.0,30.07,NW,315,12.0,17.0,40,0.48,,,-99.99,,2013-02-03 21:32:00,
2013-02-03 16:42:00,69.0,44.0,30.07,NW,315,12.0,17.0,40,0.48,,,-99.99,,2013-02-03 21:42:00,
2013-02-03 16:52:00,70.0,46.0,30.07,WNW,293,10.0,14.0,43,0.48,,,-99.99,,2013-02-03 21:52:00,
2013-02-03 17:01:00,69.0,46.0,30.07,NW,325,10.0,15.0,44,0.48,,,-99.99,,2013-02-03 22:01:00,
2013-02-03 17:11:00,69.0,46.0,30.07,NW,325,10.0,15.0,44,0.48,,,-99.99,,2013-02-03 22:11:00,
2013-02-03 17:21:00,68.0,45.0,30.07,WNW,284,12.0,17.0,44,0.48,,,-99.99,,2013-02-03 22:21:00,
2013-02-03 17:32:00,68.0,45.0,30.07,WNW,293,13.0,20.0,44,0.48,,,-99.99,,2013-02-03 22:32:00,
2013-02-03 17:42:00,68.0,45.0,30.07,WNW,293,13.0,20.0,44,0.48,,,-99.99,,2013-02-03 22:42:00,
2013-02-03 17:52:00,67.0,45.0,30.07,WNW,295,10.0,15.0,45,0.48,,,-99.99,,2013-02-03 22:52:00,
2013-02-03 18:01:00,66.0,45.0,30.07,WNW,297,10.0,13.0,46,0.48,,,-99.99,,2013-02-03 23:01:00,
2013-02-03 18:12:00,66.0,45.0,30.07,WNW,297,10.0,13.0,46,0.48,,,-99.99,,2013-02-03 23:12:00,
2013-02-03 18:22:00,65.0,45.0,30.07,WNW,294,7.0,11.0,49,0.48,,,-99.99,,2013-02-03 23:22:00,
2013-02-03 18:32:00,64.0,44.0,30.08,WNW,297,9.0,14.0,48,0.48,,,-99.99,,2013-02-03 23:32:00,
2013-02-03 18:42:00,64.0,44.0,30.08,WNW,297,9.0,14.0,48,0.48,,,-99.99,,2013-02-03 23:42:00,
2013-02-03 18:52:00,63.0,44.0,30.08,NW,305,8.0,11.0,49,0.48,,,-99.99,,2013-02-03 23:52:00,
2013-02-03 19:02:00,63.0,45.0,30.08,NW,316,7.0,10.0,52,0.48,,,-99.99,,2013-02-04 00:02:00,
2013-02-03 19:11:00,63.0,45.0,30.08,NW,316,7.0,10.0,52,0.48,,,-99.99,,2013-02-04 00:11:00,
2013-02-03 19:22:00,62.0,45.0,30.08,WNW,297,7.0,10.0,54,0.48,,,-99.99,,2013-02-04 00:22:00,
2013-02-03 19:32:00,61.0,45.0,30.08,WNW,302,7.0,10.0,56,0.48,,,-99.99,,2013-02-04 00:32:00,
2013-02-03 19:42:00,61.0,45.0,30.08,WNW,302,7.0,10.0,56,0.48,,,-99.99,,2013-02-04 00:42:00,
2013-02-03 19:52:00,60.0,45.0,30.09,WNW,301,8.0,10.0,57,0.48,,,-99.99,,2013-02-04 00:52:00,
2013-02-03 20:01:00,60.0,45.0,30.10,WNW,301,9.0,12.0,57,0.48,,,-99.99,,2013-02-04 01:01:00,
2013-02-03 20:11:00,59.0,45.0,30.10,WNW,302,7.0,10.0,59,0.48,,,-99.99,,2013-02-04 01:11:00,
2013-02-03 20:21:00,59.0,45.0,30.10,WNW,302,7.0,10.0,59,0.48,,,-99.99,,2013-02-04 01:21:00,
2013-02-03 20:32:00,58.0,45.0,30.10,WNW,290,7.0,9.0,61,0.48,,,-99.99,,2013-02-04 01:32:00,
2013-02-03 20:42:00,58.0,45.0,30.10,WNW,290,7.0,9.0,61,0.48,,,-99.99,,2013-02-04 01:42:00,
2013-02-03 20:52:00,57.0,44.0,30.11,WNW,295,7.0,10.0,62,0.48,,,-99.99,,2013-02-04 01:52:00,
2013-02-03 21:02:00,57.0,42.0,30.11,NW,309,9.0,12.0,58,0.48,,,-99.99,,2013-02-04 02:02:00,
2013-02-03 21:11:00,57.0,42.0,30.11,NW,309,9.0,12.0,58,0.48,,,-99.99,,2013-02-04 02:11:00,
2013-02-03 21:21:00,57.0,41.0,30.11,NW,319,7.0,10.0,55,0.48,,,-99.99,,2013-02-04 02:21:00,
2013-02-03 21:32:00,57.0,41.0,30.11,NW,321,7.0,9.0,55,0.48,,,-99.99,,2013-02-04 02:32:00,
2013-02-03 21:41:00,57.0,41.0,30.11,NW,321,7.0,9.0,55,0.48,,,-99.99,,2013-02-04 02:41:00,
2013-02-03 21:52:00,56.0,42.0,30.11,NW,309,8.0,11.0,60,0.48,,,-99.99,,2013-02-04 02:52:00,
2013-02-03 22:02:00,55.0,44.0,30.11,NW,322,7.0,10.0,66,0.48,,,-99.99,,2013-02-04 03:02:00,
2013-02-03 22:11:00,55.0,47.0,30.11,WNW,302,8.0,10.0,73,0.48,,,-99.99,,2013-02-04 03:11:00,
2013-02-03 22:21:00,55.0,47.0,30.11,WNW,302,8.0,10.0,73,0.48,,,-99.99,,2013-02-04 03:21:00,
2013-02-03 22:32:00,54.0,47.0,30.11,NW,325,8.0,9.0,76,0.48,,,-99.99,,2013-02-04 03:32:00,
2013-02-03 22:42:00,54.0,47.0,30.11,NW,325,8.0,9.0,76,0.48,,,-99.99,,2013-02-04 03:42:00,
2013-02-03 22:52:00,53.0,46.0,30.11,NW,314,7.0,10.0,77,0.48,,,-99.99,,2013-02-04 03:52:00,
2013-02-03 23:01:00,52.0,45.0,30.12,NW,309,5.0,7.0,78,0.48,,,-99.99,,2013-02-04 04:01:00,
2013-02-03 23:11:00,52.0,45.0,30.12,NW,309,5.0,7.0,78,0.48,,,-99.99,,2013-02-04 04:11:00,
2013-02-03 23:21:00,52.0,46.0,30.12,NW,307,4.0,6.0,81,0.48,,,-99.99,,2013-02-04 04:21:00,
2013-02-03 23:32:00,51.0,45.0,30.12,WNW,302,5.0,7.0,81,0.48,,,-99.99,,2013-02-04 04:32:00,
2013-02-03 23:42:00,51.0,45.0,30.12,WNW,302,5.0,7.0,81,0.48,,,-99.99,,2013-02-04 04:42:00,
2013-02-03 23:52:00,50.0,43.0,30.12,West,266,0.0,3.0,78,0.48,,,-99.99,,2013-02-04 04:52:00,